El Paso, TX

8:12 AM MST on February 25, 2017 (GMT -0700)
El Paso International

Weather History for KELP - September, 2014

Change the Weather History Date:

Saturday, September 6, 2014

  Actual Average Record
Temperature  
Mean Temperature 76 °F 78 °F  
Max Temperature 83 °F 90 °F 101 °F (1979)
Min Temperature 69 °F 67 °F 51 °F (1880)
Degree Days  
Heating Degree Days 0 0  
Month to date heating degree days 0 0  
Since 1 July heating degree days 0 0  
Cooling Degree Days 11 13  
Month to date cooling degree days 96 83  
Year to date cooling degree days 2315 2012  
Growing Degree Days 26 (Base 50)    
Moisture  
Dew Point 60 °F    
Average Humidity 61    
Maximum Humidity 79    
Minimum Humidity 43    
Precipitation  
Precipitation T in 0.05 in 1.25 in (2005)
Month to date precipitation 0.46 0.31  
Year to date precipitation 3.59 6.63  
Snow  
Snow 0.00 in - - ()
Month to date snowfall 0.0  
Since 1 July snowfall 0.0  
Since 1 September snowfall 0.0  
Snow Depth 0.00 in    
Sea Level Pressure  
Sea Level Pressure 29.99 in    
Wind  
Wind Speed 11 mph (ENE)    
Max Wind Speed 21 mph    
Max Gust Speed 27 mph    
Visibility 10 miles    
Events Rain    
T = Trace of Precipitation, MM = Missing Value Source: NWS Daily Summary

Daily Weather History Graph

Daily Weather History Graph

Search for Another Location

Airport or City:

Trip Planner

Search our weather history database for the weather conditions in past years. The results will help you decide how hot, cold, wet, or windy it might be!

Date:

Astronomy

Sep. 06, 2014 Rise Set
Actual Time 6:44 AM MDT 7:23 PM MDT
Civil Twilight 6:19 AM MDT 7:47 PM MDT
Nautical Twilight 5:50 AM MDT 8:16 PM MDT
Astronomical Twilight 5:20 AM MDT 8:46 PM MDT
Moon 5:35 PM MDT (9/6) 3:56 AM MDT (9/6)
Length of Visible Light 13h 28m
Length of Day
12h 38m
Waxing Gibbous, 92% of the Moon is Illuminated
Sep 6
Waxing Gibbous
Sep 8
Full
Sep 15
Last Quarter
Sep 24
New
Oct 1
First Quarter

Hourly Weather History & Observations

Time (MDT) Temp. Heat Index Dew Point Humidity Pressure Visibility Wind Dir Wind Speed Gust Speed Precip Events Conditions
12:51 AM 70.0 °F - 66.0 °F 87% 29.95 in 10.0 mi NW 8.1 mph - 0.00 in Rain Light Rain
1:51 AM 71.1 °F - 64.9 °F 81% 29.94 in 10.0 mi ENE 4.6 mph - 0.00 in   Overcast
2:51 AM 71.6 °F - 64.4 °F 78% 30.12 in 10.0 mi NE 6.9 mph - N/A   Mostly Cloudy
3:51 AM 71.1 °F - 62.1 °F 73% 29.93 in 10.0 mi ESE 4.6 mph - N/A   Mostly Cloudy
4:51 AM 71.1 °F - 63.0 °F 75% 29.93 in 10.0 mi NE 8.1 mph - N/A   Mostly Cloudy
5:51 AM 69.8 °F - 62.6 °F 78% 30.15 in 10.0 mi NNE 9.2 mph - N/A   Mostly Cloudy
6:51 AM 70.0 °F - 62.1 °F 76% 29.97 in 10.0 mi NNE 10.4 mph - N/A   Mostly Cloudy
7:51 AM 70.0 °F - 61.0 °F 73% 29.99 in 10.0 mi NNE 10.4 mph - N/A   Overcast
8:51 AM 72.0 °F - 61.0 °F 68% 29.99 in 10.0 mi NE 9.2 mph - N/A   Mostly Cloudy
9:51 AM 73.0 °F - 60.1 °F 64% 30.00 in 10.0 mi East 9.2 mph - N/A   Mostly Cloudy
10:51 AM 78.1 °F - 59.0 °F 52% 29.99 in 10.0 mi East 13.8 mph - N/A   Mostly Cloudy
11:51 AM 77.0 °F - 57.2 °F 50% 30.19 in 10.0 mi East 13.8 mph - N/A   Mostly Cloudy
12:51 PM 78.1 °F - 59.0 °F 52% 29.99 in 10.0 mi ENE 11.5 mph - N/A   Mostly Cloudy
1:51 PM 82.4 °F 82.0 °F 57.2 °F 42% 30.16 in 10.0 mi ENE 12.7 mph 20.7 mph N/A   Mostly Cloudy
2:51 PM 82.4 °F 82.0 °F 57.2 °F 42% 30.14 in 10.0 mi East 12.7 mph - N/A   Mostly Cloudy
3:51 PM 82.9 °F 82.4 °F 57.0 °F 41% 29.91 in 10.0 mi ENE 16.1 mph - N/A   Mostly Cloudy
4:51 PM 82.0 °F 81.7 °F 57.0 °F 42% 29.89 in 10.0 mi ENE 15.0 mph 20.7 mph N/A   Mostly Cloudy
5:51 PM 80.1 °F 80.4 °F 57.0 °F 45% 29.90 in 10.0 mi ENE 13.8 mph 23.0 mph N/A   Mostly Cloudy
6:51 PM 77.0 °F - 57.0 °F 50% 29.92 in 10.0 mi ENE 17.3 mph - N/A   Mostly Cloudy
7:51 PM 73.9 °F - 57.0 °F 55% 29.94 in 10.0 mi East 17.3 mph 25.3 mph N/A   Mostly Cloudy
8:51 PM 73.4 °F - 57.2 °F 57% 30.16 in 10.0 mi ENE 12.7 mph - N/A   Mostly Cloudy
9:51 PM 71.1 °F - 57.0 °F 61% 30.00 in 10.0 mi East 5.8 mph - N/A   Mostly Cloudy
11:51 PM 70.0 °F - 57.0 °F 63% 30.01 in 10.0 mi ESE 9.2 mph - N/A   Mostly Cloudy